Вернуться в каталог

STARLINK-35084

АктивенСвязьSSO
NORAD 65452·PAYLOAD·🇺🇸 United States

Запущен Sep 3, 2025 с Vandenberg Space Force Base

Loading…

Ближайшие Пролёты (ближайшие 24 часа)

TLE

СвежийSource: CelesTrak SupGP

Эпоха: Sep 15, 2026, 03:39 UTC

1 65452C 25194U   26258.15256944 -.00065315  00000+0 -20273-2 0  2587
2 65452  97.2850 107.8819 0001982  97.0130  98.3659 15.33474626    11

Отслеживайте STARLINK-35084 в реальном времени с AllMySat

Download on the App Store